Bangkok (Suvarnabhumi), Thailand

1:42 PM +07 on December 06, 2019 (GMT +0700)
Bangkok (Suvarnabhumi)

Weather History for VTBS - October, 2019

Change the Weather History Date:

Monday, October 28, 2019

  Actual Average (WUND) Record (WUND)
Temperature  
Mean Temperature 87 °F -  
Max Temperature 96 °F 89 °F - (-1)
Min Temperature 78 °F 72 °F - (-1)
Cooling Degree Days 22    
Growing Degree Days 37 (Base 50)    
Moisture  
Dew Point 76 °F    
Average Humidity 73    
Maximum Humidity 98    
Minimum Humidity 52    
Precipitation  
Precipitation 0.00 in 0.10 in - ()
Sea Level Pressure  
Sea Level Pressure 29.82 in    
Wind  
Wind Speed 4 mph ()    
Max Wind Speed 12 mph    
Max Gust Speed 26 mph    
Visibility 5.4 miles    
Events Rain , Thunderstorm    
Averages and records for this station are not official NWS values.
T = Trace of Precipitation, MM = Missing Value Source: Averaged Metar Reports

Daily Weather History Graph

Daily Weather History Graph

Search for Another Location

Airport or City:

Astronomy

Oct. 28, 2019 Rise Set
Actual Time 6:08 AM +07 5:50 PM +07
Civil Twilight 5:47 AM +07 6:12 PM +07
Nautical Twilight 5:21 AM +07 6:37 PM +07
Astronomical Twilight 4:56 AM +07 7:02 PM +07
Moon 6:03 AM +07 (10/28) 6:11 PM +07 (10/28)
Length of Visible Light 12h 25m
Length of Day
11h 41m
New Moon, 0% of the Moon is Illuminated
Oct 28
New Moon
Nov 4
First Quarter
Nov 12
Full
Nov 20
Last Quarter
Nov 26
New

Hourly Weather History & Observations

Time (+07) Temp. Heat Index Dew Point Humidity Pressure Visibility Wind Dir Wind Speed Gust Speed Precip Events Conditions
12:00 AM 80.6 °F 86.2 °F 75.2 °F 84% 29.86 in 6.2 mi Variable 2.3 mph - N/A   Mostly Cloudy
12:30 AM 80.6 °F 86.2 °F 75.2 °F 84% 29.86 in 6.2 mi Variable 2.3 mph - N/A   Mostly Cloudy
1:00 AM 81 °F - 80 °F 96% 29.83 in 2 mi Calm Calm - -   Mist
1:00 AM 80.6 °F 87.1 °F 77.0 °F 89% 29.83 in 5.6 mi SSW 5.8 mph - N/A Rain Light Rain
1:30 AM 80.6 °F 87.1 °F 77.0 °F 89% 29.83 in 5.6 mi Variable 2.3 mph - N/A Rain Light Rain
2:00 AM 80.6 °F 87.1 °F 77.0 °F 89% 29.83 in 5.6 mi North 5.8 mph - N/A   Mostly Cloudy
2:30 AM 80.6 °F 87.1 °F 77.0 °F 89% 29.80 in 5.6 mi NNW 5.8 mph - N/A   Mostly Cloudy
3:00 AM 78.8 °F - 77.0 °F 94% 29.80 in 5.6 mi NW 5.8 mph - N/A   Partly Cloudy
4:00 AM 80 °F - 80 °F 98% 29.79 in 2 mi Calm Calm - -   Mist
4:30 AM 78.8 °F - 77.0 °F 94% 29.80 in 5.6 mi NNW 2.3 mph - N/A   Partly Cloudy
5:00 AM 78.8 °F - 77.0 °F 94% 29.80 in 5.0 mi North 2.3 mph - N/A   Partly Cloudy
5:30 AM 78.8 °F - 77.0 °F 94% 29.80 in 5.0 mi NNE 3.5 mph - N/A   Partly Cloudy
6:00 AM 78.8 °F - 77.0 °F 94% 29.83 in 5.0 mi NNE 4.6 mph - N/A   Partly Cloudy
6:30 AM 78.8 °F - 75.2 °F 89% 29.83 in 5.6 mi NE 3.5 mph - N/A   Partly Cloudy
7:00 AM 81 °F - 79 °F 93% 29.84 in 2 mi Calm Calm - -   Mist
7:30 AM 82.4 °F 90.9 °F 77.0 °F 84% 29.86 in 6.2 mi North 3.5 mph - N/A   Partly Cloudy
8:00 AM 84.2 °F 94.1 °F 77.0 °F 79% 29.86 in 6.2 mi North 5.8 mph - N/A   Partly Cloudy
8:30 AM 86.0 °F 96.9 °F 77.0 °F 74% 29.89 in 6.2 mi North 4.6 mph - N/A   Partly Cloudy
9:00 AM 86.0 °F 96.9 °F 77.0 °F 74% 29.89 in 6.2 mi NNW 4.6 mph - N/A   Partly Cloudy
9:30 AM 87.8 °F 99.7 °F 77.0 °F 70% 29.89 in 6.2 mi NNE 3.5 mph - N/A   Partly Cloudy
10:00 AM 88 °F - 82 °F 77% 29.89 in 4 mi WNW 3.5 mph - -   Mist
10:00 AM 89.6 °F 102.2 °F 77.0 °F 66% 29.89 in 6.2 mi North 5.8 mph - N/A   Partly Cloudy
10:30 AM 91.4 °F 102.5 °F 75.2 °F 59% 29.89 in 6.2 mi NNE 5.8 mph - N/A   Partly Cloudy
11:00 AM 91.4 °F 102.5 °F 75.2 °F 59% 29.86 in 6.2 mi ENE 9.2 mph - N/A   Partly Cloudy
11:30 AM 93.2 °F 105.0 °F 75.2 °F 56% 29.86 in 6.2 mi ENE 8.1 mph 21.9 mph N/A   Partly Cloudy
12:30 PM 93.2 °F 105.0 °F 75.2 °F 56% 29.80 in 6.2 mi East 8.1 mph - N/A   Scattered Clouds
1:00 PM 93.2 °F 102.4 °F 73.4 °F 52% 29.80 in 6.2 mi ENE 8.1 mph - N/A   Scattered Clouds
1:30 PM 93.2 °F 102.4 °F 73.4 °F 52% 29.77 in 6.2 mi East 10.4 mph - N/A   Scattered Clouds
2:00 PM 93.2 °F 102.4 °F 73.4 °F 52% 29.77 in 6.2 mi ENE 9.2 mph - N/A   Partly Cloudy
3:30 PM 93.2 °F 102.4 °F 73.4 °F 52% 29.74 in 6.2 mi East 6.9 mph - N/A   Partly Cloudy
4:00 PM 96 °F - 81 °F 54% 29.73 in 5 mi NE 4.6 mph - -   Haze
4:00 PM 93.2 °F 102.4 °F 73.4 °F 52% 29.74 in 6.2 mi NE 8.1 mph - N/A   Partly Cloudy
5:00 PM 93.2 °F 102.4 °F 73.4 °F 52% 29.74 in 6.2 mi ENE 5.8 mph - N/A   Partly Cloudy
5:30 PM 91.4 °F 100.1 °F 73.4 °F 55% 29.74 in 6.2 mi East 9.2 mph - N/A   Partly Cloudy
6:00 PM 93.2 °F 102.4 °F 73.4 °F 52% 29.74 in 6.2 mi East 4.6 mph - N/A   Partly Cloudy
6:30 PM 91.4 °F 100.1 °F 73.4 °F 55% 29.77 in 6.2 mi East 4.6 mph - N/A   Partly Cloudy
7:00 PM 90 °F - 81 °F 68% 29.78 in 2 mi Calm Calm - -   Mist
7:00 PM 93.2 °F 102.4 °F 73.4 °F 52% 29.80 in 6.2 mi ENE 4.6 mph - N/A   Scattered Clouds
8:00 PM 91.4 °F 100.1 °F 73.4 °F 55% 29.80 in 6.2 mi East 4.6 mph - N/A   Mostly Cloudy
8:30 PM 86.0 °F 93.4 °F 73.4 °F 66% 29.83 in 5.0 mi ENE 11.5 mph 26.5 mph N/A Rain , Thunderstorm Light Thunderstorms and Rain
9:30 PM 80.6 °F 86.2 °F 75.2 °F 84% 29.83 in 6.2 mi ENE 4.6 mph - N/A   Mostly Cloudy
10:00 PM 86 °F - 82 °F 85% 29.83 in 2 mi Calm Calm - -   Mist
11:00 PM 80.6 °F 86.2 °F 75.2 °F 84% 29.86 in 6.2 mi WSW 4.6 mph - N/A   Partly Cloudy
11:30 PM 80.6 °F 86.2 °F 75.2 °F 84% 29.86 in 6.2 mi WSW 3.5 mph - N/A   Scattered Clouds